Back to catalog

FENGYUN 1C DEB

LostPO
NORAD 37411·DEBRIS·🇨🇳 China

Launched May 10, 1999 from Taiyuan Satellite Launch Center

Loading…

Next Passes (next 24 hours)

TLE

StaleSource: Space-Track

Epoch: Dec 27, 2021, 11:50 UTC

1 37411U 99025EGD 21361.49338729  .00001870  00000-0  10705-2 0  9990
2 37411  97.8062 252.6541 0274796  16.9819 344.0321 13.93147693666184

Track FENGYUN 1C DEB in real time with AllMySat

Download on the App Store